This demonstration page uses our WeatherBlox Daily Observations layout. Learn more.

Left ArrowRight Arrow

39.12711, -84.51439

Hourly Observations for October 12, 2016

Temp ( °F °C ) Dew Point ( °F °C ) Humidity (%) Winds ( mph kmh ) Pressure ( in mb ) Visibility ( mi km ) Precip ( " mm )
12:07 am 00:07 Clear with Mist and Fog 50 10 50 10 100 100 Calm 30.21 1023 2 2 0.00 0.00
12:30 am 00:30 Clear with Mist and Fog 50 10 50 10 100 100 Calm 30.21 1023 3 5 0.00 0.00
12:53 am 00:53 Clear with Mist and Fog 50 10 50 10 100 100 Calm 30.21 1023 6 10 0.00 0.00
1:43 am 01:43 Clear with Mist and Fog 49 9.4 49 9.4 100 100 Calm 30.21 1023 3 5 0.00 0.00
1:49 am 01:49 Clear with Mist and Fog 48 9 48 9 100 100 Calm 30.21 1023 2 3 0.00 0.00
1:53 am 01:53 Clear with Mist and Fog 49 9.4 49 9.4 100 100 Calm 30.20 1023 1 2 0.00 0.00
2:03 am 02:03 Clear with Mist and Fog 48 9 48 9 100 100 Calm 30.21 1023 1 1 0.00 0.00
2:20 am 02:20 Clear with Mist and Fog 48 9 48 9 100 100 Calm 30.21 1023 1 2 0.00 0.00
2:27 am 02:27 Clear with Fog 48 8.9 48 8.9 100 100 Calm 30.21 1023 1 1 0.00 0.00
2:36 am 02:36 Clear with Mist and Fog 47 8.3 47 8.3 100 100 Calm 30.21 1023 2 3 0.00 0.00
2:51 am 02:51 Clear with Mist and Fog 48 9 48 9 100 100 Calm 30.21 1023 1 2 0.00 0.00
2:53 am 02:53 Clear with Mist and Fog 48 8.9 48 8.9 100 100 Calm 30.19 1023 2 2 0.00 0.00
2:56 am 02:56 Clear with Mist and Fog 48 9 48 9 100 100 Calm 30.21 1023 3 5 0.00 0.00
3:50 am 03:50 Clear with Mist and Fog 46 8 46 8 100 100 Calm 30.18 1022 2 2 0.00 0.00
3:53 am 03:53 Clear with Mist and Fog 47 8.3 47 8.3 100 100 Calm 30.18 1022 1 1 0.00 0.00
4:00 am 04:00 Mostly Cloudy with Fog 46 8 46 8 100 100 Calm 30.18 1022 1 1 0.00 0.00
4:09 am 04:09 Mostly Cloudy with Fog 47 8.3 47 8.3 100 100 Calm 30.18 1022 0 0 0.00 0.00
4:22 am 04:22 Mostly Cloudy with Mist and Fog 46 8 46 8 100 100 Calm 30.18 1022 1 1 0.00 0.00
4:42 am 04:42 Partly Cloudy with Mist and Fog 46 8 46 8 100 100 Calm 30.18 1022 1 2 0.00 0.00
4:53 am 04:53 Mostly Clear with Mist and Fog 47 8.3 47 8.3 100 100 Calm 30.19 1022 3 5 0.00 0.00
5:21 am 05:21 Partly Cloudy with Mist and Fog 46 7.8 46 7.8 100 100 Calm 30.21 1023 2 3 0.00 0.00
5:34 am 05:34 Mostly Cloudy with Mist and Fog 46 8 46 8 100 100 Calm 30.21 1023 3 5 0.00 0.00
5:53 am 05:53 Mostly Cloudy with Mist and Fog 47 8.3 47 8.3 100 100 Calm 30.20 1023 2 3 0.00 0.00
6:01 am 06:01 Mostly Cloudy with Fog 46 7.8 46 7.8 100 100 Calm 30.21 1023 1 1 0.00 0.00
6:08 am 06:08 Mostly Cloudy with Mist and Fog 46 8 46 8 100 100 Calm 30.21 1023 2 3 0.00 0.00
6:16 am 06:16 Mostly Cloudy with Mist and Fog 45 7 45 7 100 100 Calm 30.21 1023 5 8 0.00 0.00
6:48 am 06:48 Partly Cloudy with Mist and Fog 46 8 46 8 100 100 Calm 30.21 1023 3 5 0.00 0.00
6:53 am 06:53 Partly Cloudy with Mist and Fog 46 7.8 46 7.8 100 100 Calm 30.21 1023 3 5 0.00 0.00
7:06 am 07:06 Mostly Cloudy with Mist and Fog 46 8 46 8 100 100 Calm 30.21 1023 2 3 0.00 0.00
7:12 am 07:12 Mostly Cloudy with Mist and Fog 48 9 48 9 100 100 Calm 30.21 1023 1 2 0.00 0.00
7:21 am 07:21 Mostly Cloudy with Fog 48 8.9 48 8.9 100 100 Calm 30.21 1023 1 1 0.00 0.00
7:53 am 07:53 Partly Cloudy with Fog 48 8.9 48 8.9 100 100 Calm 30.22 1023 1 1 0.00 0.00
8:17 am 08:17 Partly Cloudy with Patchy Fog 47 8.3 47 8.3 100 100 Calm 30.21 1023 1 2 0.00 0.00
8:28 am 08:28 Partly Cloudy with Patchy Fog 46 8 46 8 100 100 Calm 30.24 1024 3 5 0.00 0.00
8:53 am 08:53 Partly Cloudy with Patchy Fog 50 10 50 10 100 100 Calm 30.23 1024 5 8 0.00 0.00
9:53 am 09:53 Sunny 58 14.4 53 11.7 84 84 S 5 7 30.21 1023 10 16 0.00 0.00
10:53 am 10:53 Sunny 64 17.8 53 11.7 68 68 S 7 11 30.20 1023 10 16 0.00 0.00
11:53 am 11:53 Sunny 70 21.1 52 11.1 53 53 S 8 13 30.17 1022 10 16 0.00 0.00
12:53 pm 12:53 Sunny 74 23.3 51 10.6 45 45 SSW 10 17 30.14 1021 10 16 0.00 0.00
1:53 pm 13:53 Sunny 76 24.4 53 11.7 45 45 SSW 14 22 30.12 1020 10 16 0.00 0.00
2:53 pm 14:53 Sunny 77 25 52 11.1 42 42 SSW 14 22 30.10 1019 10 16 0.00 0.00
3:53 pm 15:53 Sunny 78 25.6 53 11.7 42 42 S 14 22 30.07 1018 10 16 0.00 0.00
4:53 pm 16:53 Sunny 77 25 54 12.2 45 45 SSW 12 19 30.06 1018 10 16 0.00 0.00
5:53 pm 17:53 Partly Cloudy 75 23.9 53 11.7 46 46 SSW 15 24 30.04 1017 10 16 0.00 0.00
6:53 pm 18:53 Cloudy 73 22.8 53 11.7 50 50 SSW 10 17 30.05 1018 10 16 0.00 0.00
7:53 pm 19:53 Cloudy 71 21.7 53 11.7 53 53 SSW 9 15 30.05 1018 10 16 0.00 0.00
8:53 pm 20:53 Cloudy 70 21.1 54 12.2 57 57 SW 10 17 30.07 1018 10 16 0.00 0.03
9:53 pm 21:53 Mostly Cloudy 65 18.3 55 12.8 70 70 SW 7 11 30.07 1018 10 16 0.00 0.00
10:53 pm 22:53 Mostly Cloudy 62 16.7 56 13.3 80 80 SSW 8 13 30.07 1018 10 16 0.00 0.00
11:53 pm 23:53 Cloudy 64 17.8 56 13.3 75 75 SW 6 9 30.06 1018 10 16 0.00 0.00

Powered by AerisWeather